CamptonHillsWeather.com

Find the Weather for any City, State  
or Zipcode, or Country:

Campton Hills, IL Weather
Local Radar

Local Radar

Graphs, Details
Graphs and Gauges
Detailed Weather
Detailed Reports
Ajax Version (old)
Central Kane Co Summary
Davis Current Weather Graphs
Davis 24 Hour Weather History

CW3778 Data

Weather Underground
Maps
Temperature
Heat Index
Windchill
Humidity
Radar
Dew Point
Wind
Visibility
Visible Satellite
Satellite
Fronts
Snow Depth
Jet Stream
Flight Rules
Forecast Maps
Temperature Forecast
Maximum Temperature Forecast
Minimum Temperature Forecast
Dewpoint Forecast
Prevalent Weather
12Hr Probability of Precip.
Sky Cover
Health Maps
UV Forecast
Air Quality
Peak Air Quality Index
Weather Station
Davis Instruments Vantage Pro
Current Conditions [Select Refresh to Update]

Updated: 8:15pm on 8/27/14

(location)
Currently:
69.2F

Clear
Scattered Clouds

High: 81.7 F< 
(1:16pm
Low: 63.6 F 
(6:59am)
Wind: SE 0 mph
Calm
Gust: 2 mph
Today's High Wind: 7 mph (4:08pm)
Humidity: 84%
Pressure: 30.08 in  (Steady
Pressure Rate: 0.000 in/hr
Dew Point: 64.2F
Wind Chill: 69.2 F
Heat Index (feels like): 74.0 F
Comfort Level: Comfortable
Temperature Rate:  -2.65F/hr
 
5 Day Forecast
 
Wed Thu Fri Sat Sun
Clear Clear Clear Clear Clear
Partly Cloudy Chance T-storms Chance T-storms Chance T-storms Partly Cloudy
79 73 84 84 79
61 68 70 64 63

Records and Normals
 
Temperature Forecast Normal Record
High 79 81 92
(2013)
Low 61 60 55
(2008)
 
Links
 
 
Weather Advisories
No Advisories
Full Advisory Text...
Weather Map

Web Cam

Almanac
 
Sunrise:  
6:16am
Moonrise: 
8:13am

Moon Phase:
5%

Sunset: 
7:37pm
Moonset:  
8:25pm
 Star Chart...
Rainfall Totals
Hourly Rain 0.00 in
Daily Rain: 0.00 in
Monthly Rain: 6.12 in
Yearly Rain: 27.46 in
Normal Rain, month to date: 5.58 in
Normal Rain, year to date: 22.34 in
Link to Village of Campton Hills Map

Link to Counties of Illinois Map

Local Weather Exchange Network
Station ID City 
(Click for Map Location)
Neighborhood 
(Click for History)
Last Update (Date & Time) Temperature
 ()
Dew
Point ()
Humidity 
(%)
Wind 
(mph)
from the Wind Gust 
(mph) 
Pressure(in) Hourly
Rain(in)
KILSTCHA10 St. Charles Hunt Club 08/27 05:43:55 64.8 65.0 99 0 NE 0 29.72 0.00
KILSOUTH6 South Elgin Thornwood 08/27 05:33:41 65.3 63.0 93 2 NNE 0 29.99 0.00
KILCAMPT3 Campton Hills Campton Hills 08/27 05:43:52 64.7 64.0 98 0 NNW 0 30.10 0.00
KILGENEV6 Geneva Dover Ridge 08/27 05:43:58 66.5 63.0 88 0 NNE 0 30.07 0.00
KILSTCHA8 St. Charles Ronzheimer Ave. & S. Tyler Rd. 08/27 05:43:50 66.1 63.0 90 0 NNE 3 30.07 0.00
KILGENEV3 Geneva Mill Creek (NE) 08/27 05:43:52 64.8 62.0 92 0 NW 0 30.10 0.00
KILSTCHA1 St Charles CamptonHillsWeather.com Central Kane County 08/27 05:43:55 64.5 62.0 91 0 North 1 30.10 0.00
KILELGIN13 Elgin Creek Side 08/27 05:43:44 64.6 61.0 87 0 East 0 29.23 0.00
KILSOUTH5 South Elgin Concord Park 08/27 05:28:49 64.6 63.0 95 0 East 0 29.89 0.00
KILGENEV2 Geneva Mill Creek 08/27 05:34:24 65.0 63.0 92 0 North 1 30.05 0.00
KILELBUR7 Elburn Cheval-De-Selle 08/27 05:29:27 61.0 59.0 93 0 SSW 0 30.05 0.00
KILELBUR5 Elburn Prairie Highlands 08/27 05:40:16 65.2 62.0 91 0 NNE 2 30.09 0.00
KILBATAV3 Batavia West Batavia 08/27 05:40:55 66.3 64.0 91 0 NE 5 30.06 0.00
KILELBUR6 Elburn Columbine Square 08/27 05:37:34 64.7 62.0 91 0 NNE 2 30.04 0.00
KILBATAV5 Batavia Fermi National Accelerator Laboratory 08/27 05:38:55 66.1 64.0 91 0 NNW 1 30.05 0.00
KILWESTC5 West Chicago THEBROWNHOUSE.ORG 08/27 05:43:51 62.4 61.0 96 0 North 0 30.11 0.00
KILWESTC8 West Chicago Ingalton Hills Estates 08/27 05:43:54 64.0 63.0 98 0 WSW 0 30.20 0.00
KILBARTL1 Bartlett Amber Grove KC9TVS 08/27 05:38:42 64.7 39.0 39 3 NNE 4 30.15 0.00
KILNORTH11 North Aurora Waterford Oaks 08/27 05:43:53 66.0 64.0 94 0 North 0 30.08 0.00
KILELGIN10 Elgin Wing Park 08/27 05:42:11 64.9 62.0 90 0 NW 0 29.33 0.00
KILELGIN14 Elgin Elgin, IL 08/27 05:43:55 64.2 61.0 89 0 NNE 0 30.08 0.00
KILCAROL5 Carol Stream Stonehenge Court 08/27 05:40:04 66.3 51.0 57 0 NNE 0 30.07 0.00
KILGILBE2 Gilberts Gilberts, IL 08/27 05:43:43 64.2 60.0 86 1 SE 1 30.33 0.00
KILWINFI2 Winfield Winfield Heights (SarahNet) 08/27 05:32:19 67.0 64.0 89 0 North 0 30.07 0.00
KILSLEEP3 Sleepy Hollow SLEEPY HOLLOW 08/27 05:43:55 64.4 60.0 85 0 SW 0 29.66 0.00
KILCAROL6 Carol Stream Merbach Ct 08/27 05:43:49 66.6 64.0 90 0 North 1 30.07 0.00
KILSLEEP2 Sleepy Hollow Sleepy Hollow Manor 08/27 05:38:24 63.9 60.0 87 1 North 0 30.05 0.00
KILWARRE2 Warrenville meso_neigh28 08/27 05:43:57 66.9 65.0 94 0 North 0 30.07 0.00
KILHANOV2 Hanover Park meso_neigh29 08/27 05:43:15 65.1 64.0 96 0 East 1 30.12 0.00
KILWHEAT8 Wheaton Wheaton Sanitary District 08/27 05:41:12 68.8 66.0 91 0 NNE 0 30.09 0.00
KILWARRE4 Warrenville Cerny Park 08/27 05:39:59 68.0 68.0 99 0 West 0 30.28 0.00
KILWHEAT5 Wheaton N9ABF - West Wheaton 08/27 05:31:06 67.5 63.0 86 0 WNW 0 30.09 0.00
KILSCHAU9 Schaumburg Schaumburg West 08/27 05:43:52 65.1 65.0 99 0 North 2 30.10 0.00
KILEASTD2 East Dundee Rock Road Industrial Park 08/27 05:43:05 65.1 60.0 82 3 NNW 5 30.13 0.00
KILCARPE6 Carpentersville Carpentersville 08/27 05:43:39 63.5 61.0 92 0 NE 0 29.26 0.00
KILWHEAT11 Wheaton Wheaton SW Orth Ct 08/27 05:43:58 70.2 64.0 82 0 North 0 30.22 0.00
KILNAPER19 Naperville Brookdale Lakes 08/27 05:43:58 68.1 65.0 91 0 NNW 0 30.08 0.00
KILCARPE5 Carpentersville Cville WWTF 08/27 05:43:43 65.5 63.0 90 0 NW 2 30.10 0.00
KILAUROR24 Aurora Near Pine Knoll/Wolf Run 08/27 05:33:36 67.8 64.0 86 0 ESE 0 30.12 0.00
KDPA Chicago DuPage Official Station 08/27 04:52:00 66.0 62.0 87 6 NNE --- 30.11 ---
Full Advisory Text
No Warnings

Ambient Weather and Weather Underground
 Never base important decisions on this or any weather information obtained from the Internet
Updated Automatically by Ambient Weather's Virtual Weather Station  V13.01